Regional Weather Roundup
Issued by NWS

Home | Current Version | Previous Version | Graphics & Text | Print | Product List | Glossary On
Versions: 1 2 3 4 5 6 7 8 9 10 11 12 13 14 15 16 17 18 19 20 21 22 23 24 25 26 27 28 29 30 31 32 33 34 35 36 37 38 39 40 41 42 43 44 45 46 47 48 49 50
000
ASUS43 KFSD 211002
RWRSD

WEATHER ROUNDUP FOR SOUTH DAKOTA
NATIONAL WEATHER SERVICE SIOUX FALLS SD
400 AM CST TUE NOV 21 2017

NOTE: "FAIR" INDICATES FEW OR NO CLOUDS BELOW 12,000 FEET WITH NO
SIGNIFICANT WEATHER AND/OR OBSTRUCTIONS TO VISIBILITY.


SDZ001>005-009-010-012>017-211100-
NORTHWEST AND NORTH CENTRAL SOUTH DAKOTA

CITY           SKY/WX    TMP DP  RH WIND       PRES   REMARKS
BUFFALO          N/A     18   7  62 NW20G28   30.07R WCI   2
FAITH            N/A     20  12  71 N20       30.09R WCI   4
MOBRIDGE       CLOUDY    16   5  62 NW26G35   30.04R WCI  -3
$$

SDZ012>016-024>037-041>051-057-063-072>074-211100-
SOUTHWEST AND SOUTH CENTRAL SOUTH DAKOTA

CITY           SKY/WX    TMP DP  RH WIND       PRES   REMARKS
RAPID CTY ARPT CLOUDY    28  25  88 NW20      30.07R WCI  15
PIERRE         FLURRIES  27   9  46 N29G35    30.06R WCI  11
CUSTER         CLOUDY    32  26  78 N3        29.98R
ELLSWORTH AFB  FLURRIES  29  29  99 NW18      30.07R WCI  16
PHILIP         CLOUDY    31  28  89 W9        30.08R WCI  23
PINE RIDGE     LGT SNOW  31  28  89 N9G18     30.08R FOG     WCI  23
SPEARFISH      MIX PCPN  27  23  86 W15G21    30.11R WCI  15
WINNER         LGT SNOW  33  31  92 NW13      30.03R FOG     WCI  24
$$

SDZ004>011-016>023-039-040-211100-
NORTHEAST SOUTH DAKOTA

CITY           SKY/WX    TMP DP  RH WIND       PRES   REMARKS
ABERDEEN       CLOUDY    15   7  70 NW18G28   30.02R WCI  -2
WATERTOWN      PTCLDY    17   8  67 NW25G39   29.90R WCI  -1
BROOKINGS      CLOUDY    25  11  55 NW29G37   29.86R WCI   8
SISSETON         N/A     20   9  62 NW30G37   29.89R WCI   1
$$

SDZ017-020-022-023-036>040-048>070-211100-
SOUTHEAST SOUTH DAKOTA

CITY           SKY/WX    TMP DP  RH WIND       PRES   REMARKS
SIOUX FALLS    CLOUDY    37  21  52 NW18      29.87R
HURON          CLOUDY    22   6  50 N26G35    30.00R WCI   5
CHAMBERLAIN    CLOUDY    35  31  86 NW14      30.02R WCI  26
MITCHELL       CLOUDY    36  16  44 NW24G32   29.97R
YANKTON        CLOUDY    40  23  50 NW16      29.92R
$$

ABBREVIATIONS USED IN REMARKS
   TC - TEMPERATURE IN CELSIUS
  WCI - WIND CHILL INDEX
   HX - HEAT INDEX
  VSB - VISIBILITY





USA.gov is the U.S. government's official web portal to all federal, state and local government web resources and services.